463  
ASUS41 KGYX 221610  
RWRGYX  
WEATHER ROUNDUP FOR MAINE AND NEW HAMPSHIRE  
NATIONAL WEATHER SERVICE GRAY ME  
1200 PM EDT THU APR 22 2021  
 
MEZ002-005-006-010-012-015-018-020-021-024-026-027-029-221700-  
MAINE  
 
CITY SKY/WX TMP DP RH WIND PRES REMARKS
 
PORTLAND PTSUNNY 39 17 41 W22G35 29.52R  
SANFORD CLOUDY 37 17 44 W21G33 29.56R  
BAR HARBOR CLOUDY 35 26 69 W12G21 29.39S  
WISCASSET PTSUNNY 37 15 40 W12G25 29.48S  
ROCKLAND CLOUDY 37 20 50 W17G28 29.44R  
FRYEBURG PTSUNNY 38 15 39 W15G30 29.51S  
LEWISTONAUBURN CLOUDY 35 14 42 NW17G38 29.49R  
AUGUSTA CLOUDY 35 17 47 W22G36 29.45S  
WATERVILLE CLOUDY 37 21 52 W17G31 29.40S  
BANGOR PTSUNNY 36 24 62 W17G24 29.37S  
GREENVILLE N/A 28 20 71 NW12G26 29.27S WCI 18  
MILLINOCKET CLOUDY 33 25 72 W15G25 29.29S  
HOULTON CLOUDY 32 26 78 W15G22 29.19S  
PRESQUE ISLE LGT SNOW 30 27 86 W17G25 29.17F FOG WCI 18  
FRENCHVILLE LGT SNOW 29 24 82 NW17G28 29.12F WCI 17  
CARIBOU LGT SNOW 31 25 78 W12G29 29.14F  

 
 
NHZ002-005-008-009-011-012-014-221700-  
NEW HAMPSHIRE  
 
CITY SKY/WX TMP DP RH WIND PRES REMARKS
 
PORTSMOUTH PTSUNNY 38 13 35 SW22G35 29.58F  
ROCHESTER CLOUDY 36 15 42 NW21G29 29.56S  
NASHUA CLOUDY 40 15 36 W15G25 29.63S  
MANCHESTER PTSUNNY 39 15 37 W12G26 29.60F  
CONCORD CLOUDY 37 15 40 W20G33 29.59F  
LACONIA FLURRIES 32 19 58 W17G26 29.58R  
PLYMOUTH CLOUDY 32 19 59 W18G26 29.58S  
BERLIN MIX PCPN 29 17 61 NW15G30 29.49S WCI 18  
WHITEFIELD LGT SNOW 26 19 74 NW14G25 29.54S WCI 14  
JAFFREY CLOUDY 34 15 46 W12G28 29.61F  
KEENE LGT RAIN 35 15 44 NW17G25 29.65F  
LEBANON HVY SNOW 30 25 81 NW7 29.62R VSB 1/4  
MT WASHINGTON SNOW 3 3 100 NW79G92 N/A VSB 0 WCI -32  

 
 
VTZ005-007-008-221700-  
VERMONT  
 
CITY SKY/WX TMP DP RH WIND PRES REMARKS
 
ST JOHNSBURY N/A 28 23 81 MISG 29.57S  
MONTPELIER LGT SNOW 26 21 81 NW18G26 29.62S WCI 13  
BURLINGTON FLURRIES 32 20 61 NW16G23 29.66S  

 
 
MAZ007-012-024-CTZ003-RIZ002-NYZ038-NYZ072-221700-  
SOUTHERN NEW ENGLAND AND NY  
 
CITY SKY/WX TMP DP RH WIND PRES REMARKS
 
BOSTON PTSUNNY 43 17 35 W25G32 29.63S  
WORCESTER CLOUDY 36 16 44 W23G36 29.63S  
NANTUCKET FLURRIES 42 25 50 W26G35 29.69S  
PROVIDENCE PTSUNNY 44 17 33 NW22G33 29.69F  
HARTFORD PTSUNNY 42 17 36 NW25G40 29.73S  
ALBANY PTSUNNY 35 21 56 W22G36 29.75F  
NEW YORK CITY PTSUNNY 43 16 33 W23G33 29.85S  

 
 
ANZ081-ANZ082-ANZ150-NHZ014-MEZ023>029-221700-  
COASTAL MARINE OBSERVATIONS  
 
STATION/POSITION TIME TEMP WIND PRES WAVE
 
AIR SEA DIR/SP/G HT/PER  
(UTC) (F) (DEG/KT/KT) (MB) (FT/S)  

 
   
............KEY...........
 
 
WCI - WIND CHILL  
TC - TEMPERATURE IN CELSIUS  
VSB - VISIBILITY
IN MILES  
HX - HEAT INDEX  
FAIR- INDICATES FEW OR NO CLOUDS BELOW 12,000 FT, WITH NO  
SIGNIFICANT WEATHER AND/OR S TO VISIBILITY.  
 
 
 
CLICK HERE TO GO TO PREVIOUS BULLETINS.

The Nexlab ME Page
The Nexlab NH Page Main Text Page